Orbital Elements at Epoch 2459200.5 (2020-Dec-17.0) TDB
Reference: JPL 31 (heliocentric ecliptic J2000)
Element | Value | Uncertainty (1-sigma) | Units |
e | .09370185060392616 | 3.3087e-08 | |
a | 3.048456160997707 | 1.6046e-08 | au |
q | 2.762810177227281 | 1.0274e-07 | au |
i | 10.6596012237859 | 3.1617e-06 | deg |
node | 159.4532464228735 | 2.3005e-05 | deg |
peri | 203.5713739282232 | 3.1907e-05 | deg |
M | 268.9006158900441 | 2.4066e-05 | deg |
tp | 2459692.461704883418 (2022-Apr-22.96170488) | 0.00013176 | TDB |
period | 1944.098914480755 5.32 | 1.535e-05 4.203e-08 | d yr |
n | .1851757630841287 | 1.4621e-09 | deg/d |
Q | 3.334102144768133 | 1.755e-08 | au |
|
| | Orbit Determination Parameters
Additional Information
|